Tracking 35331 objects as of 17-Sep-2026
HD Live streaming from Space Station
objects crossing your sky now

SL-3 R/B

Track SL-3 R/B now!
10-day predictions
SL-3 R/B is classified as:


NORAD ID: 12904
Int'l Code: 1981-103B
Launch date: October 13, 1981
Source: Commonwealth of Independent States (former USSR) (CIS)
Launch site: PLESETSK MISSILE AND SPACE COMPLEX (PKMTR)

Note: This is a ROCKET BODY
Your satellite tracking list
Your tracking list is empty




NASA's NSSDC Master Catalog

Two Line Element Set (TLE):
1 12904U 81103B   26259.20415866  .00003985  00000-0  16854-3 0  9997
2 12904  81.1611 349.6446 0012658   8.2439 351.8999 15.22908279  2225
Source of the keplerian elements: AFSPC